Weather History for West Plains, MO

Change the Weather History Date:

Thursday, November 1, 2012

  Actual Average Record
Temperature  
Mean Temperature 51 °F 52 °F  
Max Temperature 67 °F 64 °F 83 °F (1950)
Min Temperature 35 °F 41 °F 17 °F (1993)
Degree Days  
Heating Degree Days 14 13  
Month to date heating degree days 14 13  
Since 1 July heating degree days 382 316  
Cooling Degree Days 0 0  
Month to date cooling degree days 0 0  
Year to date cooling degree days 1739 1352  
Growing Degree Days 1 (Base 50)    
Moisture  
Dew Point 35 °F    
Average Humidity 57    
Maximum Humidity 82    
Minimum Humidity 34    
Precipitation  
Precipitation 0.00 in 0.12 in 1.90 in (1972)
Month to date precipitation 0.00 0.12  
Year to date precipitation 28.26 38.12  
Sea Level Pressure  
Sea Level Pressure 29.99 in    
Wind  
Wind Speed 4 mph (SW)    
Max Wind Speed 10 mph    
Max Gust Speed 13 mph    
Visibility 10 miles    
Events      
T = Trace of Precipitation, MM = Missing Value Source: NWS Daily Summary

Daily Weather History Graph

Daily Weather History Graph

Search for Another Location

Airport:

Trip Planner

Search our weather history database for the weather conditions in past years. The results will help you decide how hot, cold, wet, or windy it might be!

Date:

Astronomy

Nov. 01, 2012 Rise Set
Actual Time 7:32 AM CDT 6:09 PM CDT
Civil Twilight 7:05 AM CDT 6:36 PM CDT
Nautical Twilight 6:34 AM CDT 7:07 PM CDT
Astronomical Twilight 6:04 AM CDT 7:37 PM CDT
Moon 8:10 PM CDT (11/1) 10:01 AM CDT (11/1)
Length of Visible Light 11h 31m
Length of Day
10h 37m
Waning Gibbous, 93% of the Moon is Illuminated
Nov 1
Waning Gibbous
Nov 6
Last Quarter
Nov 13
New
Nov 20
First Quarter
Nov 28
Full

Hourly Weather History & Observations

Time (CDT) Temp. Dew Point Humidity Pressure Visibility Wind Dir Wind Speed Gust Speed Precip Events Conditions
12:53 AM 41.0 °F 30.9 °F 67% 30.02 in 10.0 mi Calm Calm - N/A   Clear
1:53 AM 41.0 °F 30.9 °F 67% 30.02 in 10.0 mi Calm Calm - N/A   Clear
2:53 AM 39.0 °F 30.9 °F 73% 30.03 in 10.0 mi Calm Calm - N/A   Clear
3:53 AM 37.9 °F 32.0 °F 79% 30.02 in 10.0 mi Calm Calm - N/A   Clear
4:53 AM 37.0 °F 30.9 °F 79% 30.02 in 10.0 mi Calm Calm - N/A   Clear
5:53 AM 37.0 °F 30.9 °F 79% 30.04 in 10.0 mi Calm Calm - N/A   Clear
6:53 AM 37.0 °F 30.9 °F 79% 30.05 in 10.0 mi Calm Calm - N/A   Clear
7:53 AM 36.0 °F 30.9 °F 82% 30.06 in 10.0 mi Calm Calm - N/A   Clear
9:53 AM 52.0 °F 35.1 °F 53% 30.06 in 10.0 mi West 5.8 mph - N/A   Clear
10:53 AM 57.0 °F 36.0 °F 45% 30.05 in 10.0 mi Calm Calm - N/A   Clear
11:53 AM 61.0 °F 36.0 °F 39% 30.04 in 10.0 mi Variable 4.6 mph - N/A   Clear
12:53 PM 63.0 °F 36.0 °F 37% 30.01 in 10.0 mi SW 6.9 mph - N/A   Clear
1:53 PM 64.0 °F 37.9 °F 38% 29.99 in 10.0 mi South 6.9 mph - N/A   Clear
2:53 PM 64.9 °F 37.0 °F 36% 29.96 in 10.0 mi Variable 3.5 mph - N/A   Clear
3:53 PM 66.0 °F 37.0 °F 34% 29.95 in 10.0 mi West 3.5 mph - N/A   Clear
5:53 PM 63.0 °F 37.9 °F 40% 29.94 in 10.0 mi SSW 4.6 mph - N/A   Clear
6:53 PM 54.0 °F 37.9 °F 55% 29.95 in 10.0 mi SSW 4.6 mph - N/A   Clear
7:53 PM 57.0 °F 37.9 °F 49% 29.94 in 10.0 mi SSW 5.8 mph - N/A   Clear
8:53 PM 55.9 °F 37.0 °F 49% 29.94 in 10.0 mi SW 5.8 mph - N/A   Clear
9:53 PM 55.0 °F 37.0 °F 51% 29.94 in 10.0 mi SW 5.8 mph - N/A   Clear
10:53 PM 54.0 °F 37.9 °F 55% 29.93 in 10.0 mi SW 8.1 mph - N/A   Clear
11:53 PM 52.0 °F 39.0 °F 61% 29.93 in 10.0 mi WSW 5.8 mph - N/A   Clear